Regional Weather Roundup
Issued by NWS

Home | Current Version | Previous Version | Graphics & Text | Print | Product List | Glossary On
Versions: 1 2 3 4 5 6 7 8 9 10 11 12 13 14 15 16 17 18 19 20 21 22 23 24 25 26 27 28 29 30 31 32 33 34 35 36 37 38 39 40 41 42 43 44 45 46 47 48 49 50
223
ASUS44 KMEG 080010
RWRTN
TENNESSEE HOURLY STATE WEATHER ROUNDUP
NATIONAL WEATHER SERVICE MEMPHIS TN
600 PM CST WED DEC 07 2016

TNZ002-004-019-021-049-052-054-088>092-080100-
WEST TENNESSEE

CITY           SKY/WX    TMP DP  RH WIND       PRES   REMARKS
MEMPHIS INTL   CLOUDY    44  32  62 NE7       30.21R
NWS MEMPHIS      N/A     42 N/A N/A MISG        N/A
JACKSON        PTCLDY    41  33  73 NW6       30.21R
DYERSBURG      CLOUDY    43  27  52 NE8       30.21S
UNION CITY     CLOUDY    39  27  60 CALM      30.21S
PARIS          CLOUDY    39  23  52 CALM      30.21R
HUNTINGDON     CLOUDY    41  34  75 CALM      30.20R
LEXINGTON      CLEAR     39  30  70 N6        30.18R WCI  35
$$

TNZ008-025-027-028-033-062-065-066-080100-
NORTH MIDDLE TENNESSEE

CITY           SKY/WX    TMP DP  RH WIND       PRES   REMARKS
NASHVILLE      CLOUDY    43  28  55 N6        30.16S
PORTLAND       CLEAR     39  28  65 NW5       30.17R
CLARKSVILLE    CLOUDY    37  23  56 N8        30.19R WCI  31
SMYRNA         PTCLDY    42  32  67 N8        30.17R
GALLATIN       CLEAR     41  28  60 NW7       30.19S
CROSSVILLE     PTCLDY    38  33  82 CALM      30.09F
$$

TNZ061-075-076-078-094-096-097-080100-
SOUTH MIDDLE TENNESSEE

CITY           SKY/WX    TMP DP  RH WIND       PRES   REMARKS
FAYETTEVILLE   CLOUDY    41  36  81 N3        30.15R
TULLAHOMA      CLEAR     36  32  87 SW3       30.15R
WINCHESTER     CLOUDY    39  36  87 NW5       30.15R
MCMINNVILLE    MOCLDY    39  34  81 CALM        N/A
COLUMBIA       PTCLDY    41  39  93 CALM      30.16R
SHELBYVILLE    CLEAR     37  36  93 CALM      30.17R
$$

TNZ017-018-042-046-047-080100-
NORTHEAST TENNESSEE

CITY           SKY/WX    TMP DP  RH WIND       PRES   REMARKS
TRI CITIES     CLOUDY    44  32  62 N3        30.06S
ELIZABETHTON   DRIZZLE   45  37  76 CALM      30.06R
$$

TNZ012-013-036-069-073-074-080100-
CENTRAL EAST TENNESSEE

CITY           SKY/WX    TMP DP  RH WIND       PRES   REMARKS
KNOXVILLE      CLOUDY    47  37  68 NW8       30.08R
OAK RIDGE      MOCLDY    44  35  70 E5        30.11R
DOWNTOWN KNOXV CLOUDY    46  37  71 CALM      30.10R
GATLINBURG     CLOUDY    46  39  76 NW8       30.07R
MORRISTOWN     CLEAR     46  37  71 NW6       30.06R
JACKSBORO      CLOUDY    41  34  75 CALM      30.13S
$$

TNZ083-085-099-080100-
SOUTHEAST TENNESSEE

CITY           SKY/WX    TMP DP  RH WIND       PRES   REMARKS
CHATTANOOGA    CLOUDY    49  38  65 W8        30.10R
$$

SKY/WX REPORTED AS FAIR MEANS FEW OR NO CLOUDS BELOW
12 THOUSAND FEET.





USA.gov is the U.S. government's official web portal to all federal, state and local government web resources and services.